TimeAEDT,TemperatureF,Dew PointF,Humidity,Sea Level PressureIn,VisibilityMPH,Wind Direction,Wind SpeedMPH,Gust SpeedMPH,PrecipitationIn,Events,Conditions,WindDirDegrees,DateUTC
12:00 AM,53,50,87,29.85,,SSE,1.2,,,,,150,2013-11-18 13:00:00
12:00 AM,60.8,50.0,68,29.83,6.2,North,5.8,-,N/A,,Unknown,350,2013-11-18 13:00:00
1:00 AM,59.0,51.8,77,29.80,6.2,Calm,Calm,-,N/A,,Unknown,0,2013-11-18 14:00:00
2:00 AM,57.2,50.0,77,29.77,6.2,ENE,6.9,-,N/A,,Unknown,60,2013-11-18 15:00:00
3:00 AM,50,49,95,29.80,,South,4.6,,,,,180,2013-11-18 16:00:00
3:00 AM,55.4,50.0,82,29.77,6.2,ENE,5.8,-,N/A,,Unknown,70,2013-11-18 16:00:00
4:00 AM,57.2,50.0,77,29.74,6.2,ENE,3.5,-,N/A,,Unknown,60,2013-11-18 17:00:00
5:00 AM,62.6,48.2,59,29.74,6.2,North,10.4,-,N/A,,Unknown,360,2013-11-18 18:00:00
6:00 AM,51,49,91,29.81,,SSE,2.3,,,,,160,2013-11-18 19:00:00
6:00 AM,64.4,48.2,56,29.74,6.2,North,15.0,-,N/A,,Unknown,360,2013-11-18 19:00:00
7:00 AM,66.2,48.2,52,29.77,6.2,North,17.3,-,N/A,,Unknown,350,2013-11-18 20:00:00
8:04 AM,69.8,48.2,46,29.77,6.2,North,21.9,33.4,N/A,,Unknown,360,2013-11-18 21:04:00
9:00 AM,72,54,43,29.82,,NNE,9.2,,,,,20,2013-11-18 22:00:00
9:00 AM,73.4,50.0,44,29.77,6.2,North,23.0,-,N/A,,Unknown,360,2013-11-18 22:00:00
10:00 AM,75.2,50.0,41,29.77,6.2,North,20.7,-,N/A,,Unknown,360,2013-11-18 23:00:00
10:16 AM,75.2,50.0,41,29.77,6.2,North,20.7,32.2,N/A,,Unknown,360,2013-11-18 23:16:00
11:00 AM,75.2,48.2,38,29.77,6.2,North,21.9,-,N/A,,Unknown,360,2013-11-19 00:00:00
11:08 AM,75.2,51.8,44,29.77,6.2,North,20.7,32.2,N/A,,Unknown,360,2013-11-19 00:08:00
11:54 AM,80.6,51.8,37,29.77,6.2,North,17.3,28.8,N/A,,Unknown,350,2013-11-19 00:54:00
12:00 PM,77,51,29,29.79,,North,12.7,,,,,0,2013-11-19 01:00:00
12:00 PM,80.6,51.8,37,29.77,6.2,North,17.3,28.8,N/A,,Unknown,360,2013-11-19 01:00:00
1:00 PM,84.2,53.6,35,29.74,6.2,North,19.6,-,N/A,,Unknown,360,2013-11-19 02:00:00
1:13 PM,82.4,51.8,35,29.74,6.2,North,17.3,29.9,N/A,,Unknown,350,2013-11-19 02:13:00
2:00 PM,86.0,53.6,33,29.74,6.2,North,18.4,-,N/A,,Unknown,350,2013-11-19 03:00:00
3:00 PM,83,52,24,29.74,,North,13.8,,,,,10,2013-11-19 04:00:00
3:00 PM,86.0,48.2,27,29.71,6.2,North,16.1,-,N/A,,Unknown,350,2013-11-19 04:00:00
3:11 PM,77.0,55.4,47,29.74,6.2,SW,18.4,-,N/A,,Unknown,230,2013-11-19 04:11:00
3:23 PM,71.6,53.6,53,29.74,6.2,South,23.0,-,N/A,,Unknown,190,2013-11-19 04:23:00
4:00 PM,68.0,50.0,52,29.74,6.2,South,21.9,-,N/A,,Unknown,190,2013-11-19 05:00:00
5:00 PM,68.0,53.6,60,29.77,6.2,South,20.7,-,N/A,,Unknown,190,2013-11-19 06:00:00
6:00 PM,72,54,44,29.74,,SE,13.8,,,,,140,2013-11-19 07:00:00
6:00 PM,66.2,53.6,64,29.77,6.2,SSW,23.0,-,N/A,,Unknown,210,2013-11-19 07:00:00
7:00 PM,64.4,55.4,73,29.83,6.2,South,17.3,-,N/A,,Unknown,190,2013-11-19 08:00:00
8:00 PM,62.6,53.6,72,29.86,6.2,SSW,13.8,-,N/A,,Unknown,200,2013-11-19 09:00:00
9:00 PM,62,49,52,29.86,,South,5.8,,,,,170,2013-11-19 10:00:00
9:00 PM,60.8,55.4,82,29.89,6.2,SSW,12.7,-,N/A,,Unknown,210,2013-11-19 10:00:00
10:00 PM,59.0,55.4,88,29.89,6.2,SSW,9.2,-,N/A,,Unknown,200,2013-11-19 11:00:00
11:00 PM,59.0,55.4,88,29.89,6.2,SSW,6.9,-,N/A,,Unknown,200,2013-11-19 12:00:00